sat.trackr.live / text

‹ back to catalog

STARLINK-3515

NORAD 51738 · 2022-016AA

PAYLOAD ACTIVE UNKNOWN

§ Identity

Operator
Country
US
Launch date
2022-02-21
Launch site
AFETR
Launch vehicle
Mass (kg)
RCS (m²)

Purposes: comms

External: N2YO · Heavens-Above · Gunter

§ Orbital elements

Epoch: 2026-09-19T22:45:13.554720Z

Period
94.01 min
Inclination
53.1595°
Eccentricity
0.0001167
Mean motion
15.31696793 rev/d
Perigee alt
470.0 km
Apogee alt
471.5 km
Semi-major
6,848.9 km
B*
1.2070e-5
RAAN
153.3903°
Arg perigee
88.8605°
Mean anomaly
271.2530°
Rev number
25,306

§ Raw data

STARLINK-35151 51738U 22016AA  26262.94807355  .00000009  00000+0  12070-4 0  99962 51738  53.1595 153.3903 0001167  88.8605 271.2530 15.31696793253064

JSON: /api/v1/satellites/51738 · /tle

For live sub-satellite position, see the globe view (requires WebGL).

§ Visibility from observer

Set your observer location to see the next 7 days of passes ≥ 10°. The values pass through the URL so the page stays shareable.

No JS? Fill the form by hand. The geolocation button needs JavaScript.